Tracking 35274 objects as of 11-Sep-2026
HD Live streaming from Space Station
objects crossing your sky now

COSMOS 554 DEB


COSMOS 554 DEB is no longer on orbit


NORAD ID: 6462
Int'l Code: 1973-021V
Launch date: April 19, 1973
Source: Commonwealth of Independent States (former USSR) (CIS)
Launch site: PLESETSK MISSILE AND SPACE COMPLEX (PKMTR)
Decay date: 1973-05-12

Note: This is SATELLITE DEBRIS
Your satellite tracking list
Your tracking list is empty




NASA's NSSDC Master Catalog

Two Line Element Set (TLE):
1 06462U 73021  V 73129.45353607  .02085485 +47829-2 +00000-0 0  9990
2 06462 072.5702 296.0606 0092641 328.5742 030.9920 16.04497870003221
Source of the keplerian elements: AFSPC